Wind_Speed
22 23 25 23 21 22 23 20 18 14 13 14 16 23 24 22 24 24 20 17 14 13 12 13 14 13 13 13 14 15 12 9 8 7 7 7 7 7 8 5 2 4 5 4 3 1 1 2 2 5 3 3 6 8 9 9 9 9 9 9 9 9 11 14 18 24 26 27 28 29 29 29 28 28 27 27 26 26 27 27 27 27 26 25 24
24 25 27 26 22 21 19 17 15 11 9 11 16 23 26 25 24 22 19 16 15 14 11 12 15 15 13 15 16 15 11 8 7 6 7 7 8 9 7 4 2 4 4 3 2 1 1 1 3 5 2 5 7 8 9 9 9 9 9 9 9 10 12 15 21 26 27 27 28 28 28 27 27 27 27 27 26 26 26 25 24 22 21 20 19
28 28 29 30 26 21 17 14 12 9 8 9 15 21 25 26 22 19 16 15 15 14 11 11 15 16 14 15 16 14 10 7 6 7 7 8 10 10 6 3 3 3 3 2 1 0 2 2 3 5 3 6 7 8 8 8 9 9 9 9 9 10 12 17 24 26 26 27 26 26 26 25 25 25 24 24 24 23 22 21 18 16 14 13 13
32 29 29 29 27 23 17 13 10 9 8 8 14 19 23 24 21 18 17 15 14 14 12 11 14 17 16 15 15 13 10 8 7 8 8 9 12 10 7 4 3 3 3 2 1 0 2 2 3 6 4 6 8 8 8 8 8 9 9 9 9 10 12 18 25 26 26 26 25 25 24 24 24 23 23 22 22 20 19 17 15 12 11 11 11
34 29 26 24 24 23 18 14 10 10 10 8 12 17 21 23 21 19 18 16 14 14 12 11 12 16 17 15 14 13 11 9 9 9 9 12 13 11 8 5 4 4 4 2 1 1 1 2 3 6 5 6 8 8 8 8 8 8 9 9 10 11 13 20 26 26 25 24 23 23 22 22 22 21 21 20 20 19 17 15 13 11 10 10 10
34 30 25 21 20 21 19 16 13 11 11 10 11 16 23 24 21 20 19 16 14 13 12 10 10 13 15 15 14 13 12 11 11 10 11 13 13 12 9 6 5 4 4 3 1 1 1 1 2 5 6 6 8 8 9 8 9 8 8 9 10 11 13 19 26 25 24 23 21 21 20 20 19 18 18 17 17 16 15 14 12 11 10 9 8
33 32 27 22 20 21 20 18 15 13 12 12 12 15 23 25 22 21 19 17 15 13 11 10 10 11 13 13 13 13 12 13 12 12 13 13 13 12 10 7 5 4 3 3 2 1 1 2 2 4 6 6 8 9 9 9 9 9 9 9 10 12 13 18 24 25 23 21 20 19 18 17 16 15 14 14 14 13 12 12 11 10 9 7 7
31 33 30 26 23 22 23 21 19 16 14 14 14 15 22 26 24 22 20 17 15 14 13 11 10 10 12 11 11 12 12 13 13 13 14 12 12 13 10 7 5 4 2 4 3 2 1 2 2 3 5 7 9 9 9 9 10 10 10 9 10 12 13 15 21 24 23 21 19 17 16 14 13 12 11 10 10 10 10 9 9 8 8 7 6
31 32 31 30 26 24 24 24 22 18 16 16 16 16 22 26 26 24 21 17 15 16 15 13 10 10 12 11 10 12 13 14 12 13 14 12 10 12 11 8 5 5 4 5 4 3 1 1 2 3 4 6 8 10 10 9 10 11 11 10 10 11 13 14 17 22 23 22 19 17 15 13 11 9 8 7 6 7 7 7 7 7 7 6 6
33 33 33 33 31 26 25 25 23 21 18 17 17 18 22 27 27 25 23 19 17 17 17 15 11 10 12 12 10 11 14 14 12 12 14 12 10 11 12 9 6 7 5 4 3 5 2 1 2 3 3 5 8 11 11 10 11 11 12 12 11 11 13 14 15 18 22 22 21 18 16 13 11 9 7 5 4 3 4 4 4 4 5 5 5
38 37 37 35 33 30 27 26 24 22 21 18 16 19 23 26 26 25 25 22 20 20 20 17 14 12 13 14 11 11 13 14 13 12 13 14 12 12 13 10 8 8 6 4 3 5 4 2 2 3 3 3 6 10 13 12 11 12 12 12 12 12 12 14 15 16 19 21 22 20 18 15 13 11 9 7 5 2 1 2 2 1 2 3 4
39 38 40 38 34 32 31 29 25 25 24 19 15 17 22 25 25 25 25 24 22 22 22 20 17 14 14 15 13 11 12 14 14 13 13 14 13 13 14 11 9 9 7 5 3 4 5 4 3 3 3 3 4 8 13 14 12 12 13 13 13 12 12 13 15 16 17 19 20 20 19 17 15 13 11 9 7 6 5 4 3 3 1 1 2
37 34 37 39 36 33 33 30 27 28 27 22 16 15 18 23 24 23 25 26 24 23 23 22 19 17 15 14 14 14 13 14 15 14 14 14 14 14 14 12 10 9 8 7 5 4 4 4 3 3 3 4 3 5 11 15 14 13 13 14 14 13 13 13 14 16 17 18 18 19 19 17 16 14 13 12 10 9 8 7 6 5 4 3 2
42 37 36 38 37 34 33 31 28 30 30 26 20 16 17 19 21 22 23 25 25 23 23 21 20 19 15 13 15 16 16 16 16 15 14 14 14 15 15 14 12 10 9 8 8 6 4 3 3 3 2 4 4 4 7 13 16 15 14 14 15 15 14 14 14 15 17 18 18 18 18 18 17 16 15 14 13 12 11 10 8 7 7 6 4
45 42 40 40 38 34 34 32 29 32 32 29 25 21 19 18 18 19 21 23 24 23 22 23 22 20 16 15 16 18 18 17 17 17 16 15 14 16 16 15 13 12 10 10 10 8 5 3 2 2 2 3 4 5 5 9 15 17 15 15 16 16 16 16 15 16 17 18 18 18 18 18 18 18 17 16 15 15 14 13 12 10 10 9 7
46 44 43 42 38 34 34 33 30 32 33 31 29 26 23 20 18 17 18 20 22 21 22 23 22 19 18 17 16 18 18 17 19 19 19 17 15 17 17 16 14 12 12 11 10 9 6 4 2 1 2 2 3 5 6 7 11 16 17 16 16 17 18 18 17 17 17 18 18 19 18 19 19 19 18 18 17 17 16 15 14 13 12 12 11
46 45 45 42 37 35 34 32 31 32 32 32 32 30 27 24 21 18 16 18 20 21 22 22 21 20 20 17 17 19 18 18 20 21 20 19 17 17 18 17 15 13 12 11 9 8 6 5 5 3 0 1 2 4 6 7 8 12 16 18 17 17 18 19 20 19 18 18 19 19 19 19 19 19 19 18 18 18 18 17 16 15 14 14 14
48 47 46 43 39 35 33 31 30 32 34 34 34 33 31 28 25 21 18 18 20 21 22 23 22 21 21 20 22 22 19 19 21 20 20 20 18 18 18 18 16 14 12 10 8 7 6 6 6 6 4 1 1 3 4 6 8 10 13 17 19 19 19 20 21 21 21 20 20 20 20 20 20 20 19 19 18 18 18 18 17 17 16 16 16
48 49 49 46 42 38 35 32 31 34 36 37 36 35 34 31 28 25 22 19 20 21 22 24 25 23 21 22 23 21 19 20 21 19 18 19 19 18 19 18 16 14 12 10 9 8 7 7 7 7 7 5 3 2 3 5 7 9 11 14 17 19 20 21 21 22 23 23 23 22 22 22 21 21 20 19 19 19 19 19 19 19 19 19 19
47 49 50 48 45 43 41 38 36 37 39 39 38 37 36 34 31 28 25 23 22 22 23 25 26 24 24 24 22 22 22 22 21 19 17 17 17 17 18 18 17 16 15 13 12 10 9 9 9 9 9 8 7 6 5 4 6 8 9 12 14 17 20 21 22 23 23 24 25 25 25 24 23 23 22 21 21 21 21 21 21 20 20 20 20
51 51 51 50 48 47 45 43 40 37 37 39 39 38 37 36 34 31 28 26 24 24 24 25 25 24 24 24 22 22 24 23 22 20 19 18 17 16 17 18 18 18 17 16 15 13 12 12 11 11 10 10 10 10 9 7 7 7 9 11 12 15 17 20 22 23 24 24 25 26 26 26 26 25 25 24 24 24 23 23 23 22 22 22 22
55 54 53 52 51 50 48 46 43 36 34 39 40 39 39 37 35 33 30 28 26 26 26 26 26 26 27 27 26 26 26 25 24 23 22 21 20 18 19 19 20 20 19 18 17 15 15 14 14 14 12 12 12 12 12 11 10 9 9 10 12 13 16 18 20 22 23 24 25 26 26 27 27 27 28 27 28 27 27 27 26 26 25 25 25
54 54 55 56 55 53 50 48 46 39 36 42 43 41 40 39 37 34 32 30 28 27 28 28 29 32 33 32 30 29 27 26 26 25 24 23 23 22 21 21 22 22 21 20 19 18 17 17 17 16 15 15 14 14 14 14 13 12 11 11 12 13 14 16 18 20 22 23 25 26 27 27 27 28 28 29 29 30 30 30 30 30 29 29 29
56 56 56 58 59 57 54 51 48 42 40 43 44 44 42 40 39 36 34 32 30 28 29 30 31 33 34 32 31 30 29 29 28 27 27 25 25 24 24 23 24 23 22 22 21 19 18 18 19 19 18 18 17 16 16 16 16 15 14 13 13 13 14 15 17 19 20 22 23 25 26 26 27 28 29 29 30 31 31 31 31 31 31 31 31
59 58 57 58 59 58 55 53 50 45 42 44 46 47 44 42 41 38 35 33 31 29 28 29 31 32 32 31 30 30 30 31 31 30 29 28 27 26 25 25 26 25 24 24 24 21 20 19 20 20 20 20 20 19 19 18 18 18 17 16 15 15 15 15 16 17 19 20 22 23 24 25 25 27 28 29 30 31 31 31 32 32 32 32 32
60 60 58 57 58 58 55 52 49 47 46 47 48 48 46 44 43 39 36 34 33 31 29 29 30 32 32 32 31 30 29 31 31 31 31 30 28 27 27 27 27 27 25 25 25 23 22 21 21 22 21 21 22 21 21 21 20 20 19 19 18 17 17 17 17 17 18 18 19 20 21 22 23 24 26 27 28 29 30 31 31 32 33 33 33
61 61 60 58 58 58 56 53 48 48 52 53 51 50 48 46 45 42 39 36 34 33 32 31 31 32 32 32 32 31 30 30 31 31 31 30 29 29 29 29 29 28 27 25 24 24 23 22 22 23 23 23 23 23 23 23 22 21 21 21 20 20 19 19 19 19 19 18 18 18 19 19 20 22 23 24 25 26 27 28 29 30 31 32 33
62 61 61 60 59 60 60 59 55 55 60 59 55 54 52 49 47 44 42 40 37 35 34 33 33 33 33 32 33 33 32 31 31 31 31 30 30 30 31 31 31 30 28 26 24 24 24 23 23 24 24 25 24 24 24 24 24 23 23 23 23 22 22 21 21 21 20 20 19 19 18 18 18 19 20 21 23 24 25 26 27 28 29 30 30
63 62 61 60 61 62 64 65 64 63 63 61 59 58 56 53 50 45 44 43 41 38 36 35 34 34 33 33 34 35 34 33 32 31 30 30 30 31 32 32 31 31 30 27 25 24 24 24 24 23 24 25 25 25 25 26 26 25 25 25 25 25 25 24 23 22 22 21 20 19 19 18 17 17 17 18 19 21 22 23 24 25 27 28 28
64 63 62 61 62 64 67 68 68 67 64 61 62 62 60 57 53 49 46 45 44 41 38 37 36 34 34 35 36 36 35 34 34 32 31 30 31 31 32 32 31 32 31 28 25 24 25 25 24 24 24 25 25 25 26 27 27 27 27 27 27 26 26 27 26 24 24 23 22 21 20 19 18 17 16 16 17 18 19 19 21 22 24 25 26
66 64 64 63 64 65 68 69 69 68 65 63 62 63 63 60 57 53 49 46 45 43 40 39 38 38 38 38 38 37 36 36 35 34 32 31 31 31 31 31 31 32 31 29 27 26 26 26 25 25 25 24 24 25 26 27 28 28 29 29 29 28 28 28 28 27 25 24 24 23 22 21 20 19 18 17 17 17 17 18 18 19 20 21 21
70 67 65 66 66 67 68 69 69 69 67 65 63 63 63 62 59 56 53 50 46 45 43 41 40 40 41 41 40 38 37 37 37 36 35 34 32 31 30 30 30 31 31 30 29 28 26 27 27 26 26 24 23 24 26 27 27 29 30 30 30 30 29 29 29 29 28 26 25 24 24 22 21 20 20 19 19 18 18 17 17 17 17 17 17
73 70 68 68 69 69 69 69 70 70 69 68 64 61 60 61 60 58 57 54 50 48 46 44 42 40 40 42 42 40 38 38 38 38 38 37 35 33 31 30 31 31 31 31 31 29 28 28 28 28 28 26 24 23 24 25 26 28 30 30 31 31 31 30 29 29 30 29 28 26 25 24 22 22 21 20 20 19 18 17 17 17 17 16 16
76 72 70 70 70 71 70 69 69 69 70 68 64 59 58 59 60 60 58 56 53 51 49 47 45 43 41 41 42 43 42 40 39 40 40 40 38 36 34 33 33 34 34 33 33 32 31 31 30 30 30 29 28 25 24 24 26 27 29 29 31 32 32 32 31 30 31 32 31 28 26 25 24 23 23 22 21 20 19 19 19 18 18 18 17
78 74 72 72 71 71 71 69 68 67 67 67 65 61 57 56 57 57 57 56 54 53 52 50 48 46 44 42 42 44 44 43 41 41 42 42 41 39 38 37 36 37 37 37 36 35 34 33 33 33 33 33 32 30 27 26 26 26 27 28 30 32 33 34 33 32 32 33 33 31 29 27 26 26 25 25 24 23 22 22 21 21 20 21 21
82 78 76 74 73 72 71 71 70 68 67 67 66 64 62 59 57 57 56 55 54 53 53 52 50 48 46 44 43 43 45 45 43 41 41 42 42 42 42 41 40 39 40 40 39 39 38 36 35 35 36 36 35 33 31 30 28 27 26 27 29 30 33 35 36 34 33 33 35 34 31 30 29 28 27 27 27 26 25 24 23 23 23 24 24
86 83 80 77 75 74 73 73 72 72 71 69 67 64 63 63 62 61 60 58 55 54 53 54 53 51 48 46 45 44 44 44 44 43 42 42 43 43 44 45 44 44 43 43 43 43 41 40 38 37 37 37 37 36 35 33 32 30 28 28 29 30 32 36 37 36 34 33 35 35 33 32 31 30 30 29 29 28 28 27 26 26 26 27 27
87 86 83 80 78 76 76 75 74 74 73 71 69 66 65 64 64 63 62 61 59 57 56 56 55 53 50 48 47 46 42 41 41 40 41 42 43 44 45 46 47 47 47 46 47 47 45 44 42 39 38 38 37 38 38 35 34 33 32 31 30 31 32 34 36 37 35 34 35 36 35 34 33 32 32 31 31 30 30 30 30 30 30 30 30
87 87 85 83 80 79 78 77 76 75 73 71 70 69 68 66 65 64 62 61 60 59 59 57 56 54 51 49 49 47 42 39 39 38 38 40 41 43 45 46 48 48 49 49 49 49 48 47 46 43 41 39 37 38 39 37 35 36 36 34 32 31 32 33 34 37 38 37 36 36 37 36 35 34 33 33 33 33 32 32 32 32 33 33 33
85 88 88 86 84 81 80 79 77 76 74 73 72 71 70 68 67 65 63 62 61 60 60 58 57 55 53 50 50 50 45 42 41 41 42 43 43 43 43 44 47 49 49 50 51 51 50 49 48 46 44 42 39 39 39 39 38 38 38 36 34 33 33 33 34 36 38 40 39 38 37 37 36 35 34 34 35 35 34 34 34 35 35 34 33
85 86 88 88 87 86 84 82 80 78 77 75 74 73 72 70 68 66 65 63 63 62 61 60 58 57 55 53 53 53 52 50 48 47 48 48 47 46 44 43 46 49 48 49 51 52 52 51 50 49 47 46 43 41 41 41 42 41 38 35 35 36 35 33 34 35 38 40 41 41 39 38 37 37 36 36 38 37 36 36 37 37 36 35 33
87 86 87 88 88 88 88 86 84 83 81 79 77 76 74 72 69 67 66 64 63 62 62 61 60 58 57 56 55 56 56 56 55 53 51 50 50 49 47 45 46 47 47 48 51 52 53 53 52 51 50 49 47 45 44 43 44 43 40 36 36 37 36 35 34 36 38 40 42 42 42 40 39 38 38 39 40 40 39 40 41 40 38 37 35
93 90 88 87 87 88 88 88 87 85 83 81 79 78 75 73 71 70 68 67 65 63 63 62 61 60 59 58 58 58 57 57 56 54 53 52 52 52 51 51 50 49 47 48 50 52 53 54 54 53 52 51 50 49 48 46 46 46 44 41 39 38 37 36 37 37 38 39 40 41 42 42 41 40 41 42 43 43 43 43 43 42 40 39 37
98 96 91 88 87 86 87 87 87 85 84 82 81 79 77 75 74 73 72 70 68 66 65 64 64 63 62 62 61 61 60 59 57 55 54 54 54 54 54 54 53 51 50 50 50 51 52 54 54 54 54 54 53 53 52 50 47 47 46 44 43 41 38 37 38 39 38 37 38 39 40 42 43 42 42 43 44 45 45 45 45 44 42 41 40
101 99 95 91 89 87 86 86 86 86 85 84 83 81 79 77 76 75 74 73 71 70 68 67 66 66 66 65 64 64 63 62 60 58 57 57 56 55 55 54 54 53 53 52 52 52 53 53 53 54 56 56 56 57 57 54 50 48 47 47 46 45 43 40 39 41 40 38 39 39 39 41 42 42 43 44 45 46 46 46 46 46 44 43 42
102 101 97 93 91 89 87 87 87 87 86 86 85 84 82 80 79 78 77 75 74 73 72 71 70 70 69 68 67 66 66 65 64 62 61 61 59 58 57 56 56 56 55 54 54 54 54 54 53 55 57 57 57 59 60 58 54 51 51 50 48 47 47 45 44 43 41 39 41 42 41 43 43 42 44 46 46 45 45 46 47 47 46 45 44
102 103 100 96 93 91 89 88 87 87 87 87 87 87 86 84 83 82 81 79 78 77 76 75 74 73 72 70 69 68 68 67 67 65 64 64 63 61 59 58 58 58 58 57 57 57 56 55 55 55 57 57 57 58 60 60 58 56 55 54 53 51 50 50 49 48 46 44 45 45 45 46 46 44 45 48 47 45 45 46 47 47 46 45 45
100 102 103 101 97 94 92 90 88 87 87 88 88 88 87 87 86 85 84 83 81 80 79 78 77 75 74 73 72 71 71 70 70 69 68 67 66 64 62 61 60 60 59 59 60 60 59 57 56 56 57 57 58 58 60 60 59 59 56 54 54 55 55 54 53 52 52 52 51 50 49 50 50 48 47 49 48 46 46 46 47 47 47 46 46
96 99 100 101 100 98 95 92 91 89 88 89 89 89 88 88 88 87 86 85 84 83 82 81 80 78 77 76 75 74 73 73 73 72 71 70 68 67 65 65 64 63 62 62 61 62 62 61 60 59 59 59 59 59 60 60 59 59 57 54 56 57 56 55 55 56 57 58 58 56 53 54 55 53 51 52 52 49 48 49 50 50 49 49 48
93 95 97 97 98 97 96 94 92 91 90 90 90 90 90 89 88 88 87 86 85 85 84 83 82 81 80 79 78 77 77 76 76 74 73 71 70 69 69 68 67 66 66 65 64 63 63 63 63 63 62 62 61 61 62 62 61 60 58 58 60 61 58 56 58 59 59 60 61 60 58 58 60 59 56 56 56 54 53 54 56 55 55 54 53
90 92 94 95 94 94 94 93 92 92 91 90 90 90 90 89 89 88 87 87 86 86 85 84 83 83 82 82 81 80 80 79 78 76 75 74 73 72 72 72 71 70 70 69 67 65 64 64 65 65 64 64 65 65 65 65 65 63 61 60 62 62 60 59 59 59 59 60 63 63 61 63 65 65 63 61 59 59 60 61 63 63 62 62 61
Wind_Direction
211 202 202 200 202 203 206 212 216 223 229 237 225 202 193 197 205 211 219 227 227 220 227 230 216 214 217 216 220 219 218 225 239 243 225 210 202 202 201 190 211 290 300 296 287 295 266 261 11 16 17 155 153 139 125 117 113 109 108 110 107 107 105 104 114 120 116 113 110 108 106 104 103 101 100 100 102 103 103 103 101 99 96 94 91
213 196 196 193 195 198 197 201 203 203 212 224 217 202 197 201 208 213 220 224 216 213 227 225 209 210 218 219 219 215 214 229 242 226 206 200 191 187 183 172 245 286 301 291 277 177 174 157 53 36 61 160 156 139 127 119 115 111 110 109 108 110 107 113 125 125 120 116 112 109 108 106 103 101 99 99 101 103 103 102 99 96 92 89 85
212 192 192 192 195 198 195 196 195 194 200 213 209 201 200 204 207 210 216 215 209 214 224 222 210 206 217 223 218 210 210 235 241 213 210 202 182 177 174 181 256 289 308 293 283 151 145 125 72 52 88 164 158 142 132 122 119 115 115 113 114 118 113 124 133 129 123 119 114 111 109 107 105 103 102 102 102 104 105 104 100 93 87 84 79
210 194 191 192 197 200 196 195 195 196 198 206 204 199 201 202 201 207 215 213 211 216 219 222 216 210 217 221 216 213 217 239 234 214 215 196 178 175 175 195 258 296 316 306 303 36 116 123 90 67 97 165 162 149 137 128 126 121 123 121 123 128 122 134 140 133 127 122 117 115 112 110 107 105 105 104 104 106 107 106 101 92 83 76 71
210 201 197 194 198 202 202 201 197 202 206 204 200 198 198 196 196 207 215 214 214 216 218 226 221 216 219 222 223 222 225 234 226 218 211 189 179 177 177 203 253 291 321 321 316 40 85 119 105 79 99 162 169 156 144 136 134 130 132 130 132 137 131 142 147 139 132 127 122 120 116 113 110 107 106 104 104 105 105 105 101 93 84 75 67
213 209 208 205 206 207 211 214 206 207 215 208 201 200 197 194 196 206 214 215 214 215 220 226 223 219 219 223 227 227 229 227 219 217 203 188 185 182 182 203 245 281 319 335 336 47 79 108 117 92 101 156 174 164 153 146 144 142 141 140 141 146 141 148 155 149 141 135 129 126 122 117 112 109 106 103 102 102 102 101 98 93 86 75 65
218 216 218 220 222 218 221 228 221 217 224 216 206 203 200 197 198 203 212 216 213 215 219 221 219 217 217 222 229 232 230 218 213 213 199 192 193 188 187 202 236 269 318 358 1 21 91 106 133 110 103 147 177 173 163 155 153 153 152 152 151 153 151 153 161 162 154 146 140 135 131 125 118 113 108 104 99 95 94 94 93 90 85 77 66
220 221 225 230 234 234 234 237 235 229 232 226 211 205 204 201 199 201 210 211 209 215 216 214 216 214 212 215 224 227 218 206 208 209 196 194 200 197 195 203 230 251 310 3 15 21 79 117 141 138 111 137 174 180 173 166 163 163 163 163 160 160 159 159 165 171 169 163 157 150 145 139 132 126 117 108 98 87 81 81 84 85 84 81 72
219 222 228 233 236 240 240 241 243 236 234 232 215 206 206 201 197 201 210 207 203 214 214 208 212 214 206 201 209 210 202 201 207 207 199 198 203 205 203 206 230 244 290 345 18 37 55 121 135 163 129 131 166 184 181 176 172 172 173 171 169 168 168 167 170 176 180 179 175 170 165 159 153 148 138 125 108 88 72 67 74 81 81 78 71
218 219 225 231 233 236 239 241 245 238 231 231 216 205 206 202 196 198 209 207 199 209 212 205 208 213 206 200 204 204 198 200 207 209 207 209 212 212 207 209 231 246 280 322 15 46 61 109 128 165 166 136 158 182 188 185 181 180 182 180 178 177 176 176 176 180 185 188 189 187 184 182 179 178 176 172 153 111 69 52 59 78 77 69 64
222 222 223 228 230 230 234 239 241 234 226 223 211 202 204 205 197 195 206 207 202 210 212 204 204 209 208 206 209 209 203 202 208 211 213 217 222 217 209 211 229 249 278 303 355 41 60 89 123 155 186 161 154 177 189 192 189 187 189 189 186 185 184 183 183 186 190 193 196 196 197 198 199 201 205 207 207 211 286 359 3 69 74 58 51
224 225 224 226 228 227 229 236 236 226 219 212 199 194 202 207 202 195 201 205 206 210 208 203 203 207 209 210 212 215 213 210 209 213 216 220 225 221 212 211 224 248 275 293 317 13 47 71 103 143 178 191 166 174 187 193 195 193 194 197 194 192 191 190 191 192 194 198 201 203 205 207 210 215 220 225 229 239 258 284 289 266 264 8 20
219 224 226 223 223 225 228 232 229 220 213 206 193 185 195 207 209 200 198 204 208 205 200 201 204 207 208 211 216 218 219 218 215 215 220 224 227 223 216 213 220 242 268 286 299 330 17 52 81 122 166 194 193 180 186 192 197 199 198 201 201 200 197 196 197 199 201 203 206 210 213 216 219 224 229 233 238 247 258 269 271 259 259 279 310
222 229 231 223 219 222 224 226 225 218 211 206 199 191 192 202 211 208 200 202 205 200 196 200 207 208 205 211 222 223 223 224 224 222 224 229 229 225 221 219 221 235 257 278 289 303 328 18 63 97 152 186 201 199 194 194 197 200 201 204 205 206 204 202 202 205 208 209 211 216 220 224 227 230 234 237 243 250 257 264 264 257 254 264 276
227 232 232 225 221 220 219 221 222 218 213 208 204 200 197 198 208 213 209 205 203 198 194 198 207 207 202 206 215 223 227 229 231 230 232 236 235 229 226 227 228 234 251 270 281 287 295 318 30 78 125 178 199 205 207 201 199 200 202 205 208 210 210 209 208 209 212 215 216 219 222 227 231 234 239 242 247 251 256 259 261 257 253 256 262
227 230 228 224 221 217 216 219 222 221 218 213 209 207 203 199 206 214 214 213 209 202 197 199 203 202 204 209 214 222 227 232 236 236 239 242 239 233 231 234 236 239 253 267 273 275 278 287 312 37 101 155 197 207 213 213 207 204 203 205 208 212 213 214 214 213 215 219 221 222 224 227 231 235 239 243 247 250 252 254 255 256 256 256 261
223 224 223 221 217 212 213 217 220 222 223 219 215 213 209 203 207 213 212 213 213 208 203 203 203 200 202 211 219 219 219 227 234 235 238 240 237 235 235 239 242 246 258 264 265 265 266 277 294 307 12 134 184 207 215 219 218 212 208 207 208 211 215 217 218 218 218 221 224 226 227 229 231 234 237 240 242 245 247 249 250 253 255 258 263
221 221 219 218 213 208 212 218 220 223 224 223 220 218 215 208 206 212 214 211 211 211 207 205 208 205 200 210 219 214 213 225 230 231 235 237 235 235 238 243 247 251 256 255 257 260 260 270 289 298 299 287 201 204 214 220 224 222 216 212 211 211 213 217 220 221 222 223 225 228 229 231 232 233 235 237 239 241 243 245 247 250 252 256 262
218 219 218 217 212 207 209 213 216 222 224 223 223 221 219 213 206 208 213 210 209 212 208 205 210 209 205 212 216 209 210 222 224 223 229 233 234 236 241 246 250 251 250 247 248 251 253 260 275 290 295 290 277 247 228 226 228 231 228 223 219 217 216 216 218 221 224 225 227 229 230 232 234 235 235 236 239 241 243 245 246 249 252 256 261
214 216 217 217 214 209 208 208 209 217 223 222 223 223 221 217 210 206 209 209 207 208 209 210 210 208 208 209 208 205 207 212 212 209 213 223 229 234 241 246 249 249 248 246 244 242 244 249 257 273 284 282 278 273 264 253 242 238 237 235 232 229 226 223 221 221 223 226 229 231 232 233 236 237 238 239 241 242 244 246 247 249 252 255 259
212 214 215 216 215 212 210 208 207 211 220 223 223 224 223 219 213 208 207 209 208 205 206 211 210 209 213 213 210 208 205 203 205 203 202 209 219 231 240 243 246 249 249 247 244 240 239 243 250 259 267 269 269 268 269 267 262 255 245 242 240 238 236 233 231 229 228 228 230 232 234 236 237 239 241 242 244 245 247 248 250 251 253 255 258
211 212 213 215 216 213 210 209 208 208 217 226 226 225 225 222 218 213 209 209 212 208 203 205 210 213 215 215 215 211 204 203 207 208 206 207 211 223 234 241 245 247 248 247 244 240 238 240 247 254 258 259 260 263 266 267 267 266 255 245 243 243 241 240 239 237 236 234 234 235 237 238 240 241 243 244 246 248 249 251 253 254 256 258 260
213 213 212 215 217 215 211 209 208 206 214 225 225 223 224 223 221 218 211 209 213 213 206 203 208 212 211 211 213 210 206 207 211 214 215 214 215 220 229 241 247 249 250 250 246 242 239 239 242 248 252 253 255 258 263 266 266 264 259 250 245 245 245 244 244 243 242 241 240 241 241 241 242 243 245 247 248 250 252 253 255 257 258 260 262
213 214 213 216 218 216 212 209 206 202 211 225 224 220 221 222 222 221 215 210 212 216 214 208 209 213 214 216 216 212 210 212 216 219 222 223 224 226 230 239 247 248 249 250 249 246 244 243 242 244 247 249 251 253 258 263 265 264 261 256 249 246 247 247 246 246 245 245 245 246 246 246 246 246 247 248 250 252 254 255 257 259 261 262 264
212 213 214 216 217 216 212 209 206 202 210 224 224 219 219 221 221 222 219 214 211 214 218 215 214 216 219 222 223 219 215 217 220 224 227 230 233 234 233 236 242 244 243 246 249 249 250 250 249 247 245 245 247 250 254 259 263 265 265 261 255 250 248 248 248 247 247 247 247 248 249 250 251 251 251 251 252 254 255 256 258 260 262 263 265
213 214 215 215 215 215 212 209 208 206 210 220 222 218 219 221 221 222 222 219 214 212 215 219 219 220 221 224 227 226 223 223 226 229 232 235 238 239 238 238 241 244 244 245 248 248 249 252 253 253 250 247 246 248 252 255 259 264 266 265 261 256 252 250 249 249 248 248 248 249 250 252 253 254 255 256 256 257 257 258 259 260 261 263 264
214 215 215 215 214 213 212 208 207 209 213 218 219 217 218 221 222 222 222 221 219 215 213 217 221 223 223 225 228 230 229 229 233 236 238 240 241 242 242 242 244 246 247 248 248 248 248 249 251 254 254 252 250 249 251 255 257 261 264 266 266 263 259 254 251 250 249 249 249 250 251 253 255 256 257 258 259 259 260 260 261 261 262 263 264
213 214 215 216 214 212 210 207 205 209 214 217 217 217 219 220 221 223 222 222 221 219 216 216 220 224 225 226 228 229 231 233 236 240 243 244 245 244 244 244 246 248 249 249 249 249 249 249 249 251 253 254 254 254 253 255 257 259 262 265 267 268 266 261 255 251 249 250 250 251 253 255 257 259 261 261 261 261 261 262 262 263 264 264 265
212 214 214 216 216 215 212 209 207 210 214 217 217 217 219 221 221 223 224 223 222 222 221 219 222 226 227 229 231 230 230 232 236 239 242 245 247 246 246 246 247 250 251 251 251 251 251 251 249 250 252 253 254 255 255 255 256 258 260 263 265 268 269 267 261 255 251 251 251 252 253 254 255 259 262 264 264 264 264 264 265 266 267 267 268
212 214 215 216 216 217 217 215 213 214 217 220 219 218 220 222 223 224 226 226 225 224 225 224 225 226 227 230 234 231 230 232 235 238 240 242 245 246 247 247 248 250 252 253 253 254 255 256 253 251 251 252 253 254 254 255 255 256 258 260 262 265 268 269 266 261 256 253 252 252 251 251 252 253 257 261 265 267 267 268 269 270 270 271 272
214 215 216 216 216 217 219 220 219 219 221 224 223 221 221 223 225 226 227 228 228 228 228 228 227 227 228 232 235 233 230 231 234 237 238 239 241 243 246 248 249 249 250 252 255 257 260 262 260 255 252 252 252 253 253 254 254 255 255 256 258 260 263 267 267 265 261 257 254 252 251 250 249 250 253 257 262 265 267 268 269 270 271 273 274
215 217 218 218 218 218 218 220 222 224 226 229 228 225 224 225 226 227 228 230 231 231 232 232 231 230 230 233 236 237 234 232 233 235 236 237 238 239 243 247 249 249 249 251 257 261 263 264 264 261 258 255 253 252 252 254 256 256 255 254 254 255 258 261 264 264 262 260 258 255 252 250 250 250 252 256 259 262 264 266 267 268 269 271 274
216 218 219 219 220 221 221 221 222 224 228 231 232 230 227 226 227 228 229 231 232 234 235 236 235 234 234 234 236 238 237 235 235 235 235 237 238 239 242 247 250 251 251 252 257 262 264 265 265 263 261 259 256 253 252 252 254 256 257 256 254 253 253 255 258 261 261 260 259 259 256 253 251 251 252 254 256 258 261 263 265 267 268 270 274
215 218 219 220 222 223 223 223 224 225 227 229 233 234 231 229 229 230 231 232 233 235 237 238 238 237 237 237 237 237 238 238 237 237 237 237 239 241 245 250 253 254 255 255 257 261 264 265 265 263 261 260 259 259 258 255 252 253 256 258 257 255 252 252 254 258 260 259 258 260 260 258 255 253 252 252 253 255 257 260 262 264 267 269 273
215 218 220 221 222 224 224 225 225 226 227 228 229 232 233 233 234 234 234 234 234 236 238 240 240 240 241 241 240 237 237 237 238 239 239 240 241 243 247 252 256 257 257 257 258 260 262 264 265 264 261 260 259 260 262 262 259 255 254 256 259 258 256 253 252 254 257 258 257 257 259 260 259 256 254 253 253 253 253 255 258 261 264 267 270
216 218 220 222 223 225 225 226 227 227 228 230 230 231 232 235 237 238 237 237 238 238 240 242 243 243 245 245 244 241 237 237 239 240 241 242 243 246 249 252 255 257 258 258 258 260 261 262 262 263 262 261 260 260 262 265 267 265 259 254 255 258 258 256 255 253 254 256 256 256 257 260 261 260 259 258 257 256 255 254 255 257 260 264 266
217 219 221 223 225 226 227 228 229 230 231 233 234 234 234 235 236 238 239 240 241 242 244 245 245 247 248 248 246 243 238 237 238 240 241 243 245 248 250 252 254 255 256 256 257 258 260 260 260 260 261 261 262 262 262 265 269 272 269 260 255 256 257 258 257 255 253 255 256 256 256 258 260 260 261 261 261 261 259 258 256 256 256 258 262
218 219 221 223 225 227 228 230 231 232 233 234 235 235 235 236 236 238 239 242 244 246 247 248 249 250 250 250 247 242 237 236 238 240 242 244 246 248 250 251 252 254 255 255 255 256 257 259 260 259 258 258 259 261 263 265 268 271 273 269 262 258 257 259 259 257 254 254 255 255 255 255 257 258 260 261 262 262 262 261 260 258 257 258 260
220 220 221 223 225 227 229 230 231 233 234 234 235 236 237 238 239 240 241 243 245 246 247 249 251 251 251 251 246 240 236 238 240 242 243 245 248 249 250 252 254 255 256 257 256 256 256 258 260 260 258 255 255 258 262 265 267 269 272 273 272 267 262 259 259 259 257 254 253 253 253 253 254 255 257 259 261 261 261 261 261 261 260 260 261
220 221 222 223 224 226 228 230 231 232 234 235 237 238 239 240 241 242 244 245 246 246 246 248 249 249 249 248 244 239 239 242 245 246 247 248 250 252 254 256 258 258 259 259 259 258 257 258 259 259 259 257 254 254 257 261 264 267 270 274 277 274 268 261 258 258 259 258 255 253 252 252 252 252 253 256 257 258 259 260 261 260 260 261 261
220 223 224 224 225 227 229 230 231 233 235 237 238 240 241 242 243 244 245 246 246 246 246 247 248 249 248 246 244 243 244 248 251 252 252 251 252 253 254 256 259 261 262 261 260 259 258 258 258 258 259 259 256 253 253 256 261 267 271 273 274 275 273 268 262 259 260 260 259 256 254 253 252 251 250 251 253 254 256 258 258 258 259 260 260
220 223 225 226 226 228 230 231 233 234 236 238 240 241 242 243 244 244 244 245 245 245 245 246 248 249 249 248 248 248 248 251 254 255 254 254 254 254 253 253 258 262 264 263 262 260 259 258 258 258 258 258 258 256 255 255 259 265 270 271 272 274 276 275 269 264 261 261 261 259 257 256 256 254 251 250 251 252 253 255 256 256 257 258 258
219 223 225 227 228 229 231 232 234 235 237 238 239 241 242 243 243 244 245 245 246 245 245 245 247 249 251 252 254 254 252 252 253 254 254 255 255 255 254 254 257 261 263 263 263 263 262 260 260 260 258 257 258 258 258 257 258 262 267 270 271 272 274 276 275 271 267 264 263 261 260 259 258 256 254 252 251 251 252 254 255 256 256 256 256
219 223 225 227 229 231 232 233 235 236 237 237 239 240 242 243 244 245 246 247 248 247 247 246 246 248 250 252 255 256 255 254 255 255 256 256 256 256 256 257 259 261 263 263 262 263 263 262 261 260 259 257 257 258 259 259 260 262 264 267 269 271 272 272 273 273 272 270 267 263 261 260 258 257 256 254 252 252 253 254 256 257 257 257 257
219 222 225 227 229 231 232 234 235 236 237 238 239 240 241 242 244 245 246 247 248 248 248 248 247 248 249 251 253 254 254 255 256 257 258 258 258 259 260 261 262 264 265 265 263 262 263 262 261 260 258 257 256 257 258 260 262 263 264 265 266 269 270 270 269 270 271 272 269 265 261 259 259 259 259 257 255 254 254 256 257 258 259 259 259
219 222 225 227 229 230 232 234 236 237 238 239 240 241 241 242 243 244 245 246 247 248 248 249 249 250 251 252 252 252 252 252 252 254 256 257 258 259 261 262 263 265 266 266 264 263 263 262 260 259 258 258 257 257 258 260 262 263 264 265 265 266 268 269 268 267 267 268 267 266 264 261 260 259 260 260 258 256 257 258 259 260 261 261 262
220 222 224 227 229 230 232 234 236 238 239 240 241 242 243 243 244 244 245 246 247 247 249 250 251 252 252 252 252 251 250 250 250 252 254 255 256 257 258 260 261 263 265 266 265 263 263 262 260 258 258 258 258 258 258 260 261 262 264 265 266 265 266 266 267 267 266 264 263 263 263 263 261 259 260 262 260 257 257 259 260 261 263 264 265
221 222 224 227 229 231 232 234 236 238 240 241 242 243 244 245 246 246 246 246 247 248 249 250 251 252 252 252 251 251 251 251 251 253 254 255 256 257 258 259 260 261 263 264 264 263 262 261 259 257 257 257 257 258 258 259 261 261 263 264 265 265 264 265 266 266 266 264 262 261 261 262 262 259 259 261 260 258 258 259 260 261 263 264 265
222 223 224 227 229 231 233 235 236 238 240 242 244 245 245 246 247 248 248 248 248 249 250 251 252 252 252 252 251 251 251 252 253 254 256 256 257 257 258 259 260 260 261 262 262 261 261 261 260 259 257 256 256 257 258 259 260 260 260 261 262 263 264 265 266 266 265 264 264 263 261 261 262 259 258 260 261 260 260 261 261 261 261 262 263
223 224 225 226 229 231 233 235 237 238 240 243 245 247 247 248 248 249 250 250 251 251 251 252 252 252 252 252 252 252 252 253 254 256 256 256 256 257 258 258 259 259 259 259 259 258 259 260 260 261 260 259 259 259 259 260 260 260 260 260 261 262 263 264 264 264 264 264 264 263 262 262 263 261 259 260 262 262 262 262 263 263 263 264 264
223 224 225 226 228 230 232 235 236 238 240 242 244 247 248 249 250 250 251 251 252 252 252 252 252 252 253 253 253 253 254 254 255 255 255 255 256 256 257 258 258 257 256 256 256 256 256 256 258 259 261 262 262 262 262 262 263 263 263 262 261 263 264 264 264 263 263 264 264 264 263 263 263 263 261 260 261 262 263 264 265 265 265 266 266
Height
10754 10755 10757 10760 10761 10762 10762 10762 10762 10763 10763 10764 10766 10768 10770 10772 10774 10775 10776 10777 10778 10779 10779 10780 10781 10782 10783 10784 10784 10785 10785 10786 10786 10787 10787 10788 10788 10789 10790 10791 10791 10791 10791 10790 10790 10789 10789 10789 10789 10788 10788 10788 10788 10788 10788 10788 10788 10788 10789 10790 10790 10790 10791 10791 10792 10793 10793 10793 10794 10794 10794 10794 10795 10795 10795 10795 10795 10795 10796 10796 10797 10797 10797 10798 10798
10755 10754 10756 10759 10761 10761 10760 10761 10761 10761 10762 10763 10764 10766 10768 10770 10772 10774 10775 10776 10777 10778 10778 10779 10780 10781 10782 10783 10784 10784 10785 10785 10786 10786 10787 10787 10788 10789 10790 10790 10790 10791 10790 10790 10789 10789 10788 10788 10788 10788 10788 10789 10789 10789 10789 10789 10789 10790 10790 10791 10791 10792 10792 10793 10793 10794 10795 10795 10795 10795 10796 10796 10796 10796 10797 10797 10797 10798 10798 10798 10799 10799 10799 10799 10799
10755 10753 10754 10756 10758 10759 10759 10759 10759 10760 10761 10762 10763 10765 10767 10769 10771 10773 10775 10775 10776 10777 10777 10778 10779 10780 10782 10782 10783 10784 10785 10785 10785 10786 10786 10787 10787 10789 10789 10790 10790 10791 10790 10790 10789 10788 10788 10788 10788 10788 10788 10789 10789 10790 10790 10790 10790 10791 10791 10792 10792 10793 10793 10794 10795 10795 10796 10796 10796 10797 10797 10798 10798 10798 10798 10799 10799 10799 10800 10800 10800 10800 10800 10800 10800
10755 10752 10752 10753 10754 10756 10758 10758 10758 10759 10760 10761 10762 10763 10765 10768 10770 10772 10774 10775 10775 10776 10776 10777 10778 10779 10781 10782 10783 10784 10784 10785 10785 10786 10786 10786 10787 10788 10789 10790 10791 10791 10790 10789 10789 10788 10788 10787 10787 10787 10788 10789 10790 10790 10790 10791 10791 10791 10792 10793 10793 10794 10794 10795 10796 10797 10797 10797 10798 10798 10798 10799 10799 10799 10800 10800 10800 10801 10801 10801 10801 10801 10801 10801 10801
10753 10751 10750 10751 10752 10754 10756 10757 10757 10758 10759 10760 10761 10763 10764 10767 10769 10771 10773 10774 10775 10775 10775 10776 10777 10778 10780 10781 10782 10783 10784 10784 10784 10785 10785 10786 10786 10787 10788 10789 10790 10790 10790 10789 10789 10788 10787 10787 10787 10787 10787 10789 10790 10790 10791 10791 10792 10792 10793 10793 10794 10795 10795 10796 10797 10797 10798 10798 10799 10799 10799 10800 10800 10800 10801 10801 10801 10802 10802 10802 10802 10802 10802 10802 10802
10752 10750 10749 10749 10751 10753 10754 10755 10756 10757 10758 10759 10760 10762 10763 10765 10768 10770 10772 10773 10774 10774 10775 10776 10776 10777 10779 10780 10781 10782 10783 10783 10784 10784 10785 10786 10786 10787 10788 10789 10790 10790 10790 10789 10788 10788 10787 10787 10787 10787 10787 10788 10790 10791 10791 10791 10792 10793 10793 10794 10794 10795 10796 10797 10797 10798 10798 10799 10799 10800 10800 10801 10801 10801 10801 10802 10802 10803 10803 10803 10803 10803 10803 10803 10803
10748 10748 10747 10748 10750 10751 10753 10754 10756 10757 10757 10758 10759 10761 10762 10764 10767 10770 10772 10773 10773 10774 10774 10775 10776 10777 10778 10779 10780 10781 10782 10783 10783 10784 10785 10785 10786 10787 10787 10788 10789 10790 10790 10789 10788 10788 10787 10787 10787 10787 10787 10788 10789 10791 10791 10792 10792 10793 10794 10794 10795 10795 10796 10797 10798 10798 10799 10799 10800 10800 10801 10801 10801 10802 10802 10802 10803 10803 10803 10803 10803 10804 10804 10803 10803
10745 10745 10746 10747 10748 10750 10752 10753 10755 10756 10757 10757 10758 10759 10761 10763 10765 10768 10771 10772 10773 10773 10773 10774 10775 10776 10777 10778 10779 10780 10781 10782 10783 10784 10784 10785 10786 10787 10787 10788 10788 10789 10789 10789 10788 10788 10787 10787 10787 10787 10787 10787 10789 10790 10791 10792 10792 10793 10793 10794 10795 10796 10796 10797 10798 10799 10799 10799 10800 10800 10801 10801 10802 10802 10802 10803 10803 10803 10804 10804 10804 10804 10804 10804 10804
10741 10743 10744 10745 10747 10749 10750 10752 10754 10756 10756 10756 10757 10758 10760 10762 10764 10767 10769 10771 10773 10772 10772 10773 10775 10775 10776 10777 10778 10779 10781 10782 10783 10784 10784 10785 10786 10787 10787 10788 10788 10789 10789 10789 10788 10788 10787 10787 10787 10787 10787 10787 10788 10790 10791 10792 10792 10793 10793 10794 10795 10796 10796 10797 10798 10799 10799 10799 10800 10800 10801 10801 10802 10802 10803 10803 10803 10804 10804 10804 10804 10804 10804 10804 10804
10737 10739 10741 10743 10746 10748 10749 10751 10753 10755 10756 10756 10756 10757 10759 10761 10762 10765 10767 10770 10772 10771 10771 10772 10774 10775 10776 10777 10778 10779 10780 10781 10783 10783 10784 10785 10785 10786 10787 10788 10788 10789 10789 10789 10788 10788 10787 10787 10787 10787 10787 10787 10787 10789 10790 10791 10792 10792 10793 10794 10795 10795 10796 10797 10798 10799 10799 10800 10800 10801 10801 10802 10802 10802 10803 10803 10803 10803 10804 10804 10805 10805 10805 10805 10804
10733 10735 10738 10740 10744 10747 10748 10750 10752 10753 10754 10755 10755 10755 10757 10760 10761 10763 10766 10768 10769 10769 10770 10772 10773 10774 10775 10776 10778 10779 10780 10781 10782 10783 10784 10784 10785 10785 10786 10787 10788 10789 10789 10789 10788 10788 10787 10787 10787 10787 10787 10787 10787 10788 10789 10790 10791 10792 10793 10793 10794 10795 10796 10797 10798 10799 10799 10800 10800 10801 10801 10802 10802 10802 10803 10803 10803 10803 10804 10804 10805 10805 10805 10805 10805
10729 10732 10735 10738 10741 10744 10746 10748 10750 10752 10753 10754 10754 10754 10756 10758 10760 10763 10764 10766 10767 10768 10770 10771 10771 10773 10774 10776 10777 10779 10780 10781 10782 10783 10783 10784 10784 10785 10785 10786 10787 10788 10788 10788 10788 10788 10787 10787 10787 10787 10787 10787 10787 10787 10788 10789 10791 10791 10792 10793 10794 10795 10796 10797 10797 10798 10799 10800 10800 10801 10801 10801 10802 10802 10802 10802 10803 10803 10803 10804 10804 10805 10805 10805 10805
10725 10729 10731 10735 10739 10742 10743 10745 10747 10749 10751 10753 10754 10754 10755 10757 10759 10761 10763 10764 10766 10767 10768 10769 10771 10772 10774 10776 10777 10778 10780 10780 10781 10782 10783 10783 10784 10784 10785 10786 10787 10787 10788 10788 10788 10788 10787 10787 10786 10787 10787 10787 10787 10787 10787 10788 10790 10791 10791 10792 10793 10794 10795 10796 10797 10798 10798 10799 10800 10800 10801 10801 10801 10801 10802 10802 10802 10803 10803 10803 10804 10804 10804 10804 10804
10722 10725 10728 10733 10737 10739 10740 10743 10745 10747 10749 10751 10752 10753 10754 10756 10758 10760 10761 10763 10764 10765 10767 10769 10770 10772 10774 10776 10777 10778 10779 10780 10781 10782 10782 10783 10783 10784 10784 10785 10786 10787 10787 10787 10787 10787 10787 10786 10786 10786 10786 10786 10786 10787 10787 10787 10788 10790 10791 10791 10792 10793 10794 10795 10796 10797 10798 10798 10799 10800 10800 10800 10800 10801 10801 10801 10802 10802 10802 10802 10803 10803 10803 10804 10804
10717 10721 10725 10730 10734 10736 10738 10741 10743 10745 10747 10748 10750 10752 10753 10754 10756 10758 10759 10761 10762 10763 10766 10768 10770 10772 10774 10776 10777 10778 10779 10780 10781 10781 10782 10783 10783 10783 10784 10784 10785 10786 10786 10786 10787 10787 10787 10786 10786 10785 10785 10786 10786 10786 10786 10787 10787 10788 10789 10790 10791 10792 10793 10794 10795 10796 10796 10797 10798 10798 10799 10799 10800 10800 10800 10801 10801 10801 10801 10802 10802 10802 10803 10803 10803
10712 10717 10722 10726 10731 10734 10736 10739 10741 10743 10745 10747 10748 10750 10751 10753 10754 10755 10757 10758 10760 10762 10764 10767 10769 10771 10772 10774 10776 10778 10779 10780 10780 10781 10782 10782 10783 10783 10784 10784 10784 10785 10786 10786 10786 10786 10786 10786 10785 10785 10785 10785 10785 10786 10786 10786 10786 10787 10788 10789 10790 10791 10792 10793 10794 10794 10795 10796 10796 10797 10798 10798 10798 10799 10799 10800 10800 10800 10800 10800 10801 10801 10801 10802 10802
10708 10713 10718 10723 10728 10731 10734 10737 10740 10742 10743 10745 10746 10748 10749 10751 10752 10753 10755 10756 10758 10761 10763 10765 10767 10769 10770 10772 10775 10777 10779 10779 10779 10780 10781 10781 10782 10783 10783 10784 10784 10785 10785 10785 10785 10785 10785 10785 10785 10785 10784 10784 10784 10785 10785 10785 10786 10786 10787 10788 10789 10789 10790 10791 10792 10793 10794 10794 10795 10795 10796 10797 10797 10797 10798 10798 10798 10799 10799 10799 10799 10800 10800 10800 10800
10703 10708 10713 10718 10724 10728 10731 10735 10738 10741 10741 10743 10744 10745 10747 10749 10750 10751 10753 10755 10756 10758 10761 10763 10765 10767 10768 10770 10773 10775 10777 10778 10778 10779 10780 10780 10781 10782 10782 10783 10783 10784 10784 10785 10785 10785 10785 10785 10785 10785 10784 10784 10784 10784 10784 10784 10785 10785 10786 10786 10787 10788 10788 10789 10790 10791 10792 10792 10793 10794 10794 10795 10795 10796 10796 10797 10797 10797 10797 10797 10798 10798 10798 10798 10798
10698 10703 10708 10713 10719 10724 10728 10731 10736 10738 10739 10740 10741 10743 10744 10746 10748 10749 10751 10753 10755 10756 10759 10761 10763 10765 10767 10770 10771 10772 10774 10776 10777 10778 10779 10779 10781 10781 10782 10782 10782 10783 10783 10783 10783 10783 10784 10784 10784 10784 10784 10784 10783 10783 10783 10784 10784 10784 10784 10785 10785 10786 10787 10787 10788 10789 10789 10790 10791 10792 10792 10793 10794 10794 10795 10795 10795 10795 10795 10796 10796 10796 10797 10797 10797
10694 10698 10702 10708 10714 10719 10722 10726 10730 10733 10735 10736 10738 10740 10742 10744 10746 10747 10749 10751 10753 10755 10757 10759 10761 10763 10766 10768 10769 10770 10771 10773 10775 10776 10777 10778 10779 10780 10781 10781 10781 10781 10781 10782 10782 10782 10782 10782 10783 10783 10783 10783 10783 10783 10783 10783 10783 10783 10783 10784 10784 10785 10785 10786 10786 10787 10787 10788 10789 10789 10790 10791 10792 10792 10793 10793 10793 10793 10794 10794 10794 10794 10795 10795 10795
10687 10692 10697 10702 10708 10713 10717 10722 10725 10728 10731 10734 10736 10737 10739 10741 10744 10745 10747 10749 10751 10753 10755 10756 10758 10761 10763 10765 10766 10767 10768 10770 10773 10774 10775 10776 10778 10779 10779 10779 10780 10780 10780 10780 10780 10780 10780 10780 10781 10781 10781 10781 10781 10781 10782 10782 10782 10782 10782 10782 10783 10783 10784 10784 10785 10785 10786 10786 10787 10787 10788 10789 10789 10790 10791 10791 10791 10791 10791 10792 10792 10792 10792 10792 10793
10682 10687 10692 10697 10702 10708 10713 10717 10722 10725 10730 10732 10733 10735 10737 10739 10741 10743 10745 10747 10749 10751 10753 10755 10756 10758 10761 10762 10763 10764 10765 10767 10769 10771 10772 10773 10775 10777 10777 10777 10777 10777 10778 10778 10778 10778 10778 10778 10779 10779 10779 10779 10780 10780 10780 10781 10781 10781 10781 10781 10781 10781 10782 10782 10783 10783 10784 10784 10785 10785 10786 10786 10787 10788 10788 10788 10789 10789 10789 10789 10789 10790 10790 10790 10790
10681 10684 10689 10692 10696 10702 10708 10713 10718 10722 10726 10728 10729 10732 10734 10736 10739 10740 10742 10744 10746 10748 10750 10752 10754 10755 10757 10759 10759 10760 10762 10764 10766 10767 10769 10770 10772 10773 10775 10775 10775 10775 10775 10775 10775 10775 10775 10776 10776 10777 10777 10777 10778 10778 10779 10779 10779 10779 10779 10779 10779 10780 10780 10780 10780 10781 10781 10782 10782 10783 10783 10784 10785 10785 10785 10786 10786 10786 10786 10786 10787 10787 10787 10787 10787
10677 10681 10685 10688 10691 10697 10703 10708 10713 10717 10722 10724 10724 10727 10730 10732 10735 10737 10739 10741 10743 10745 10747 10749 10750 10752 10753 10755 10756 10757 10759 10761 10762 10764 10765 10766 10768 10769 10771 10772 10772 10773 10774 10773 10773 10773 10773 10773 10774 10774 10775 10775 10776 10776 10777 10777 10777 10777 10778 10778 10778 10778 10778 10778 10778 10779 10779 10779 10780 10780 10781 10781 10782 10782 10783 10783 10783 10783 10783 10783 10784 10784 10784 10784 10784
10671 10675 10680 10684 10688 10693 10698 10703 10709 10713 10718 10720 10720 10722 10726 10729 10731 10734 10736 10738 10740 10742 10744 10746 10747 10748 10750 10752 10753 10754 10756 10758 10759 10760 10761 10762 10764 10766 10767 10768 10768 10769 10771 10771 10771 10771 10771 10771 10771 10772 10772 10773 10773 10774 10774 10775 10775 10776 10776 10776 10776 10776 10776 10776 10776 10776 10776 10777 10777 10778 10778 10779 10779 10780 10780 10780 10780 10780 10780 10781 10781 10781 10781 10781 10780
10666 10671 10675 10680 10685 10689 10694 10700 10705 10709 10712 10714 10716 10718 10722 10725 10728 10731 10733 10735 10737 10739 10741 10743 10744 10746 10748 10749 10751 10752 10753 10755 10756 10757 10758 10759 10761 10762 10763 10764 10765 10765 10767 10767 10768 10768 10769 10769 10769 10769 10770 10771 10771 10771 10772 10773 10773 10774 10774 10774 10774 10774 10774 10774 10774 10774 10774 10774 10775 10775 10775 10776 10776 10777 10777 10777 10777 10777 10777 10778 10778 10778 10778 10777 10777
10662 10666 10670 10675 10680 10685 10690 10695 10700 10703 10705 10708 10711 10714 10717 10721 10724 10727 10730 10732 10734 10736 10738 10739 10741 10743 10745 10747 10748 10749 10750 10752 10753 10754 10755 10756 10758 10759 10760 10761 10761 10762 10763 10764 10764 10765 10766 10766 10767 10767 10767 10768 10769 10769 10770 10770 10771 10772 10772 10773 10773 10773 10773 10772 10772 10772 10772 10772 10773 10773 10773 10773 10774 10774 10774 10774 10775 10775 10775 10775 10775 10775 10775 10774 10774
10658 10661 10666 10671 10676 10681 10685 10688 10692 10694 10697 10701 10705 10709 10712 10715 10719 10722 10725 10728 10731 10733 10735 10737 10738 10740 10742 10744 10745 10746 10747 10749 10750 10751 10752 10754 10755 10756 10757 10758 10758 10759 10760 10760 10761 10762 10763 10763 10764 10764 10764 10765 10766 10767 10768 10768 10769 10770 10770 10771 10771 10771 10771 10771 10771 10770 10770 10770 10770 10770 10771 10771 10771 10771 10771 10772 10772 10772 10772 10772 10772 10772 10772 10772 10772
10653 10657 10662 10667 10672 10676 10679 10682 10684 10687 10690 10694 10699 10703 10707 10711 10714 10717 10721 10724 10727 10730 10732 10733 10735 10737 10739 10741 10742 10743 10744 10745 10746 10748 10749 10751 10752 10753 10754 10755 10756 10757 10757 10758 10758 10759 10759 10760 10761 10762 10762 10762 10763 10764 10765 10766 10766 10767 10768 10768 10768 10769 10769 10769 10769 10769 10768 10768 10768 10768 10768 10768 10768 10769 10769 10769 10769 10769 10769 10769 10769 10769 10769 10769 10769
10648 10653 10657 10662 10667 10671 10674 10677 10680 10682 10686 10689 10693 10698 10702 10706 10710 10713 10716 10719 10723 10726 10729 10731 10733 10735 10737 10738 10739 10740 10741 10742 10743 10745 10746 10747 10749 10750 10751 10752 10753 10754 10755 10755 10756 10756 10756 10757 10758 10759 10759 10760 10760 10760 10761 10762 10763 10764 10764 10765 10765 10766 10767 10767 10767 10767 10767 10767 10766 10766 10766 10765 10765 10766 10766 10766 10766 10766 10767 10767 10767 10767 10767 10767 10767
10644 10648 10652 10657 10661 10665 10669 10673 10677 10679 10682 10685 10689 10693 10698 10702 10706 10709 10713 10716 10719 10722 10725 10728 10731 10733 10734 10734 10735 10736 10737 10739 10740 10741 10743 10744 10745 10747 10748 10749 10750 10751 10752 10753 10753 10754 10754 10754 10755 10756 10756 10757 10757 10757 10758 10758 10759 10760 10761 10761 10762 10763 10764 10765 10765 10766 10765 10765 10764 10764 10763 10763 10763 10763 10763 10763 10764 10764 10764 10764 10764 10764 10764 10764 10764
10639 10643 10648 10652 10656 10660 10664 10668 10672 10676 10678 10681 10684 10688 10694 10698 10702 10706 10709 10712 10715 10718 10721 10724 10727 10729 10730 10730 10731 10732 10734 10736 10737 10738 10739 10740 10742 10743 10745 10746 10747 10748 10749 10750 10750 10751 10752 10752 10752 10752 10753 10753 10754 10754 10755 10755 10755 10756 10756 10757 10758 10759 10760 10761 10762 10763 10763 10763 10762 10762 10761 10761 10760 10760 10760 10761 10761 10761 10761 10761 10761 10761 10761 10761 10761
10634 10639 10643 10648 10651 10654 10658 10662 10666 10671 10674 10677 10680 10685 10690 10695 10698 10701 10704 10708 10711 10713 10716 10719 10722 10724 10726 10727 10728 10729 10731 10732 10733 10734 10736 10737 10738 10740 10741 10742 10744 10745 10746 10747 10747 10748 10749 10749 10749 10750 10749 10749 10750 10751 10752 10752 10752 10752 10752 10753 10754 10755 10756 10757 10758 10759 10760 10760 10760 10760 10759 10759 10758 10758 10758 10758 10758 10758 10758 10758 10759 10758 10758 10758 10758
10629 10634 10638 10642 10645 10648 10653 10657 10661 10665 10669 10673 10678 10682 10687 10690 10693 10697 10700 10704 10706 10709 10711 10713 10716 10719 10721 10722 10724 10726 10727 10729 10730 10731 10732 10733 10735 10736 10738 10739 10740 10741 10742 10743 10744 10745 10746 10747 10747 10747 10747 10747 10747 10748 10748 10749 10749 10748 10748 10749 10750 10752 10753 10753 10754 10755 10756 10757 10758 10758 10758 10757 10756 10755 10755 10755 10755 10755 10755 10756 10756 10756 10755 10755 10755
10623 10628 10632 10635 10639 10642 10647 10652 10656 10660 10664 10669 10674 10679 10683 10686 10689 10693 10696 10699 10701 10704 10706 10709 10711 10714 10716 10718 10719 10721 10723 10724 10726 10727 10729 10730 10732 10733 10734 10735 10736 10737 10738 10739 10740 10741 10742 10744 10744 10744 10744 10744 10744 10744 10745 10745 10745 10745 10745 10745 10746 10747 10749 10750 10750 10751 10752 10753 10754 10755 10755 10755 10754 10753 10752 10752 10752 10752 10752 10752 10753 10753 10752 10752 10752
10617 10621 10625 10629 10633 10637 10641 10645 10650 10655 10658 10662 10667 10673 10678 10682 10685 10688 10690 10693 10696 10699 10702 10704 10707 10709 10711 10713 10715 10716 10718 10720 10722 10723 10725 10726 10728 10729 10730 10731 10732 10733 10734 10735 10736 10736 10738 10740 10741 10741 10741 10740 10740 10741 10741 10741 10742 10742 10742 10742 10742 10743 10745 10745 10746 10747 10748 10749 10750 10751 10752 10752 10751 10751 10750 10750 10749 10749 10749 10749 10749 10749 10749 10749 10749
10610 10615 10619 10624 10628 10631 10635 10639 10643 10648 10652 10656 10661 10667 10672 10677 10680 10683 10685 10688 10692 10696 10698 10699 10702 10704 10706 10708 10710 10711 10713 10715 10717 10719 10720 10722 10723 10725 10726 10727 10728 10729 10730 10731 10731 10732 10733 10734 10736 10738 10738 10737 10737 10738 10738 10738 10738 10738 10739 10739 10738 10738 10740 10741 10742 10744 10745 10745 10746 10747 10748 10748 10748 10748 10748 10747 10747 10747 10747 10747 10747 10746 10746 10746 10746
10603 10609 10613 10617 10622 10625 10628 10633 10637 10641 10646 10651 10656 10660 10665 10670 10673 10677 10681 10684 10687 10691 10693 10694 10696 10698 10701 10703 10705 10707 10709 10710 10712 10714 10715 10717 10719 10720 10721 10722 10723 10724 10726 10727 10727 10728 10729 10729 10730 10733 10734 10735 10735 10734 10734 10735 10735 10734 10735 10735 10735 10734 10735 10737 10739 10740 10741 10741 10742 10742 10743 10744 10745 10745 10745 10744 10744 10744 10744 10744 10743 10743 10743 10742 10742
10596 10602 10606 10611 10615 10619 10622 10626 10630 10635 10639 10644 10649 10653 10658 10663 10667 10671 10675 10678 10682 10685 10686 10688 10690 10693 10695 10698 10700 10702 10704 10705 10707 10709 10711 10712 10714 10715 10716 10717 10718 10719 10720 10722 10722 10723 10724 10724 10725 10727 10729 10731 10732 10731 10730 10731 10731 10731 10730 10731 10732 10732 10731 10733 10735 10736 10737 10737 10737 10738 10739 10740 10741 10741 10742 10742 10741 10740 10740 10740 10739 10739 10739 10739 10739
10588 10593 10599 10604 10609 10612 10616 10620 10624 10629 10633 10638 10642 10646 10651 10656 10661 10665 10669 10672 10675 10678 10680 10682 10684 10687 10690 10693 10694 10696 10698 10700 10703 10705 10706 10707 10709 10710 10712 10713 10714 10714 10715 10716 10717 10718 10719 10720 10720 10721 10723 10726 10728 10728 10728 10728 10728 10726 10726 10727 10729 10728 10728 10728 10730 10731 10732 10732 10733 10734 10734 10735 10736 10737 10738 10738 10736 10736 10736 10735 10735 10734 10734 10734 10735
10583 10586 10592 10597 10602 10606 10609 10613 10618 10623 10627 10632 10636 10640 10645 10650 10654 10658 10662 10665 10668 10671 10673 10675 10677 10680 10683 10686 10689 10691 10693 10695 10697 10698 10700 10702 10704 10705 10708 10711 10710 10709 10710 10711 10712 10713 10714 10714 10715 10716 10718 10720 10722 10724 10725 10724 10723 10722 10722 10724 10724 10724 10724 10725 10725 10726 10728 10728 10729 10730 10730 10731 10732 10733 10733 10733 10731 10731 10731 10731 10730 10729 10729 10730 10731
10577 10580 10584 10590 10595 10600 10603 10608 10612 10617 10622 10626 10630 10634 10638 10642 10646 10650 10653 10657 10661 10664 10667 10669 10671 10674 10676 10680 10682 10685 10687 10689 10690 10692 10694 10696 10698 10699 10702 10705 10705 10705 10706 10706 10706 10707 10708 10708 10709 10710 10712 10714 10716 10718 10720 10720 10719 10718 10718 10720 10720 10719 10720 10722 10722 10721 10722 10723 10725 10726 10727 10727 10728 10728 10728 10727 10726 10726 10726 10725 10724 10724 10725 10726 10726
10572 10574 10578 10583 10588 10593 10597 10602 10606 10612 10617 10621 10624 10626 10630 10634 10637 10641 10645 10649 10653 10658 10661 10664 10667 10669 10671 10674 10676 10678 10680 10682 10683 10685 10687 10689 10691 10692 10695 10697 10698 10699 10701 10701 10701 10701 10702 10702 10703 10704 10706 10708 10709 10711 10713 10714 10715 10714 10714 10715 10715 10715 10716 10718 10718 10718 10718 10719 10720 10722 10723 10724 10724 10724 10723 10722 10721 10721 10721 10720 10719 10720 10720 10721 10721
10567 10569 10572 10576 10581 10586 10591 10595 10601 10605 10609 10612 10615 10619 10623 10627 10630 10634 10638 10642 10647 10651 10655 10658 10661 10664 10666 10668 10670 10672 10674 10675 10676 10678 10680 10682 10683 10685 10687 10689 10691 10693 10694 10695 10695 10695 10696 10696 10697 10699 10700 10701 10702 10704 10705 10707 10709 10709 10710 10710 10710 10711 10711 10713 10714 10714 10714 10715 10716 10717 10718 10718 10718 10719 10719 10718 10717 10716 10716 10716 10715 10716 10716 10716 10717
10561 10564 10566 10570 10575 10580 10584 10588 10592 10596 10600 10604 10609 10614 10618 10621 10624 10628 10631 10635 10639 10643 10646 10650 10654 10657 10660 10662 10665 10666 10667 10668 10670 10672 10673 10674 10676 10678 10680 10682 10684 10685 10687 10688 10689 10689 10690 10690 10692 10693 10693 10694 10696 10697 10697 10699 10703 10704 10705 10706 10706 10706 10706 10708 10710 10709 10710 10711 10712 10712 10713 10712 10712 10714 10714 10713 10713 10713 10712 10712 10711 10712 10712 10712 10712
10554 10558 10561 10564 10569 10573 10577 10580 10584 10588 10593 10598 10602 10606 10610 10614 10617 10621 10625 10628 10632 10635 10638 10642 10645 10648 10651 10654 10657 10659 10660 10661 10663 10664 10666 10667 10669 10671 10673 10676 10677 10678 10679 10681 10682 10682 10683 10684 10685 10686 10686 10687 10689 10689 10689 10692 10696 10698 10700 10701 10702 10703 10702 10703 10704 10704 10705 10707 10706 10706 10708 10707 10708 10709 10708 10706 10708 10709 10709 10708 10707 10707 10708 10708 10708
10547 10552 10555 10559 10562 10566 10570 10574 10577 10581 10585 10590 10594 10598 10602 10606 10610 10614 10618 10622 10624 10627 10631 10634 10637 10640 10643 10646 10648 10650 10652 10653 10655 10657 10658 10660 10662 10665 10667 10669 10671 10671 10672 10673 10674 10674 10675 10676 10678 10679 10679 10680 10681 10682 10683 10685 10688 10691 10693 10695 10697 10698 10698 10697 10697 10698 10699 10701 10700 10700 10702 10701 10702 10705 10703 10700 10702 10705 10705 10704 10703 10702 10703 10703 10703
10540 10545 10549 10553 10557 10560 10564 10568 10571 10574 10577 10580 10585 10590 10593 10597 10601 10606 10610 10614 10617 10620 10623 10626 10629 10632 10634 10637 10639 10641 10643 10645 10647 10649 10651 10653 10655 10658 10660 10662 10664 10664 10665 10665 10665 10666 10667 10669 10670 10671 10672 10673 10674 10676 10677 10678 10681 10684 10686 10689 10690 10690 10690 10691 10692 10692 10692 10693 10693 10694 10695 10695 10694 10698 10698 10695 10696 10699 10699 10699 10698 10697 10697 10698 10698
10533 10538 10542 10546 10550 10554 10558 10561 10565 10568 10570 10572 10576 10581 10585 10589 10593 10597 10601 10605 10609 10612 10615 10618 10620 10623 10626 10628 10631 10633 10635 10637 10639 10641 10644 10646 10649 10651 10653 10654 10656 10657 10657 10657 10657 10658 10659 10661 10662 10663 10664 10665 10667 10669 10669 10671 10674 10675 10679 10682 10681 10679 10682 10684 10685 10686 10686 10685 10686 10687 10689 10688 10686 10689 10692 10690 10690 10694 10694 10692 10691 10691 10691 10692 10693
10526 10531 10535 10539 10543 10547 10551 10554 10558 10561 10564 10566 10568 10572 10576 10581 10585 10588 10591 10595 10599 10602 10606 10609 10611 10614 10616 10619 10622 10624 10627 10629 10631 10634 10636 10638 10641 10643 10644 10646 10647 10648 10648 10648 10649 10651 10652 10653 10654 10655 10657 10658 10659 10661 10662 10663 10665 10666 10671 10673 10671 10671 10675 10677 10677 10678 10679 10679 10679 10679 10682 10681 10678 10680 10684 10685 10685 10688 10687 10685 10683 10683 10684 10685 10686
10519 10523 10528 10532 10536 10540 10544 10547 10551 10554 10557 10560 10562 10564 10568 10571 10575 10579 10582 10585 10588 10591 10595 10598 10601 10604 10606 10609 10612 10616 10618 10620 10623 10625 10627 10630 10632 10634 10635 10636 10638 10638 10638 10638 10640 10643 10645 10646 10647 10648 10650 10651 10652 10653 10654 10655 10656 10658 10662 10664 10662 10663 10666 10668 10669 10670 10672 10673 10670 10671 10675 10675 10671 10672 10674 10677 10680 10681 10679 10678 10676 10675 10677 10677 10677